Regional Weather Roundup
Issued by NWS

Home | Current Version | Previous Version | Text Only | Print | Product List | Glossary Off
Versions: 1 2 3 4 5 6 7 8 9 10 11 12 13 14 15 16 17 18 19 20 21 22 23 24 25 26 27 28 29 30 31 32 33 34 35 36 37 38 39 40 41 42 43 44 45 46 47 48 49 50

000
ASUS43 KMPX 011901
RWRMN
WEATHER ROUNDUP FOR MINNESOTA
NATIONAL WEATHER SERVICE TWIN CITIES/CHANHASSEN MN
200 PM CDT FRI AUG 01 2014


NOTE: "FAIR" INDICATES FEW OR NO CLOUDS BELOW 12,000 FEET WITH NO
SIGNIFICANT WEATHER AND/OR OBSTRUCTIONS TO VISIBILITY. N/A MEANS
CURRENT SKY AND/OR WEATHER CONDITIONS ARE NOT AVAILABLE.

MNZ060>063-068>070-012000-
   Twin Cities Metro

CITY           SKY/WX    TMP DP  RH WIND       PRES   REMARKS
TWIN CITIES    MOSUNNY   83  58  42 NW10      30.06F
ST PAUL        MOSUNNY   83  59  44 NE5       30.06S
CRYSTAL        SUNNY     84  56  38 W3        30.05F
BLAINE         MOSUNNY   82  57  42 CALM      30.07S
LAKEVILLE      SUNNY     81  59  47 CALM      30.07F
EDEN PRAIRIE   MOSUNNY   83  60  45 SW5       30.06F
SOUTH ST PAUL  SUNNY     83  57  40 W7        30.06S
LAKE ELMO      FAIR      81  59  47 NW5       30.07F
$$
MNZ001>005-007-008-013>017-022>024-027-028-012000-
   Northwest Minnesota

CITY           SKY/WX    TMP DP  RH WIND       PRES   REMARKS
BEMIDJI        MOSUNNY   78  56  47 N8        30.07S
HALLOCK        MOSUNNY   81  59  47 N6        30.07S
ROSEAU         SUNNY     79  55  44 N10       30.08S
WARROAD        SUNNY     75  57  53 E6        30.09R
THIEF RVR FALL MOSUNNY   79  54  41 N9        30.08F
CROOKSTON      MOSUNNY   79  59  50 N5        30.08S
FOSSTON        MOSUNNY   79  61  53 CALM      30.09S
DETROIT LAKES  SUNNY     79  55  44 N5        30.10S
MOORHEAD       SUNNY     81  63  54 N10       30.08S
PARK RAPIDS    MOSUNNY   79  54  41 VRB6G17   30.07F
$$
MNZ006-009>011-018-025>026-012000-
   North Central Minnesota

CITY           SKY/WX    TMP DP  RH WIND       PRES   REMARKS
BAUDETTE       SUNNY     77  53  43 NW7       30.09R
FLAG ISLAND    SUNNY     75  46  35 CALM      30.07S
INTL FALLS     SUNNY     78  51  38 MISG      30.06S
WASKISH        SUNNY     79  63  57 CALM      30.07S
BIG FORK       SUNNY    N/A N/A N/A NE7       30.06F
LONGVILLE      SUNNY     79  55  44 CALM      30.08S
GRAND RAPIDS   PTSUNNY   75  55  50 W6        30.07S
CRANE LAKE     SUNNY     73  52  46 N5        30.08S
ORR            SUNNY     77  52  41 NW5       30.05S
COOK           MOSUNNY   77  55  47 CALM      30.07S
$$
MNZ012-019>021-037-012000-
   Northeast Minnesota

CITY           SKY/WX    TMP DP  RH WIND       PRES   REMARKS
DULUTH         MOSUNNY   76  57  51 SE7       30.07F
ELY            MOSUNNY   73  52  46 N6        30.07S
HIBBING        MOSUNNY   79  57  46 NW6       30.06S
EVELETH        PTSUNNY   79  54  41 W6        30.07F
DULUTH HARBOR  SUNNY     64  55  72 NE5       30.08F
TWO HARBORS    PTSUNNY   72  54  53 SE3       30.06F
SILVER BAY     PTSUNNY   70  57  64 SE5       30.07S
GRAND MARAIS     N/A     61  52  72 CALM      30.08S
G MARAIS ARPRT MOSUNNY   66  50  55 SE7       30.11S
$$
MNZ029>031-032-039>041-046>048-054>057-064-012000-
   West Central Minnesota

CITY           SKY/WX    TMP DP  RH WIND       PRES   REMARKS
FERGUS FALLS   SUNNY     79  57  47 SW5       30.06S
WHEATON        SUNNY     79  61  53 W6        30.09F
MORRIS         SUNNY     81  63  54 NW5       30.07F
ALEXANDRIA     MOSUNNY   81  57  43 NW7       30.09F
ELBOW LAKE     FAIR      80  64  57 W7        30.07F
WADENA         MOSUNNY   79  61  53 NW7       30.07F
GLENWOOD       SUNNY     82  59  44 NW9       30.09S
APPLETON       SUNNY     84  57  39 NW7       30.08S
BENSON         LGT RAIN  75  61  60 W13G21    30.09R
ORTONVILLE     MOSUNNY   82  57  42 CALM      30.09S
MADISON        SUNNY     84  61  45 W3        30.09S
WILLMAR        FAIR      82  55  39 W5        30.09F
$$
MNZ033>034-036-042>043-049>051-058-059-012000-
   Central Minnesota

CITY           SKY/WX    TMP DP  RH WIND       PRES   REMARKS
ST CLOUD       MOSUNNY   84  57  39 VRB5      30.06F
SAUK CENTRE    FAIR      80  56  45 SW3       30.08F
PAYNESVILLE    PTSUNNY   78  56  45 SW7       30.09S HAZE
AITKIN         LGT RAIN  79  64  61 CALM      30.06S
PINE RIVER     MOSUNNY   79  57  47 NW5       30.10S
BRAINERD       MOSUNNY   76  63  64 CALM      30.08F THUNDER
STAPLES        MOSUNNY   77  57  50 NE6       30.07F
LONG PRAIRIE   FAIR      73  57  56 E6        30.09S
LITTLE FALLS   MOSUNNY   79  55  44 CALM      30.08S
LITCHFIELD     SUNNY     82  61  47 CALM      30.09S
BUFFALO        MOSUNNY   82  56  41 W6        30.08S
MAPLE LAKE     MOSUNNY   82  63  52 CALM      30.08S
$$
MNZ037-044-045-052-053-012000-
   East Central Minnesota

CITY           SKY/WX    TMP DP  RH WIND       PRES   REMARKS
PRINCETON      MOSUNNY   84  61  45 W3        30.07S
MORA           SUNNY     79  55  44 CALM      30.08F
CAMBRIDGE      MOSUNNY   82  61  47 CALM      30.05F
RUSH CITY      MOSUNNY   81  56  42 CALM      30.07S
MOOSE LAKE     PTSUNNY   77  55  47 CALM      30.05S
HINCKLEY       FAIR      79  59  50 CALM      30.07S
CLOQUET        SUNNY     77  55  47 SW3       30.07F
MCGREGOR       SUNNY     79  57  47 CALM      30.07S
$$
MNZ071>073-080-081-089-090-097-098-012000-
   Southwest Minnesota

CITY           SKY/WX    TMP DP  RH WIND       PRES   REMARKS
MONTEVIDEO     MOSUNNY   84  63  48 N5        30.09F
GRANITE FALLS  MOSUNNY   81  60  49 CALM      30.11S
CANBY          PTSUNNY   80  59  47 CALM      30.11S
MARSHALL       SUNNY     81  57  44 NW6       30.10S
REDWOOD FALLS  MOSUNNY   81  59  47 NE5       30.09S
OLIVIA         MOSUNNY   81  59  47 NW6       30.09S
PIPESTONE      MOSUNNY   79  54  41 N3        30.13S
WINDOM         MOSUNNY   79  55  44 CALM      30.12S
WORTHINGTON    MOSUNNY   77  55  47 CALM      30.14S
JACKSON        MOSUNNY   79  54  41 NE5       30.13S
TRACY          SUNNY     81  58  46 N3        30.11F
SLAYTON        MOSUNNY   79  55  42 CALM      30.13F
$$
MNZ065>067-074>077-082>085-091>093-012000-
   South Central Minnesota

CITY           SKY/WX    TMP DP  RH WIND       PRES   REMARKS
MANKATO        MOSUNNY   81  54  39 NW6       30.09S
NEW ULM        SUNNY     81  59  47 NW7       30.09S
ST JAMES       MOSUNNY   82  54  36 N3        30.11S
FAIRMONT       MOSUNNY   81  52  36 NW6       30.11S
GLENCOE        SUNNY     82  56  40 W7        30.08S
FARIBAULT      SUNNY     84  52  32 SW6       30.09F
OWATONNA       MOSUNNY   81  55  41 W3        30.10S
WASECA         MOSUNNY   79  54  41 W3        30.11S
ALBERT LEA     MOSUNNY   82  54  36 W5        30.10S
$$
MNZ078>079-086>088-094>096-012000-
   Southeast Minnesota

CITY           SKY/WX    TMP DP  RH WIND       PRES   REMARKS
ROCHESTER      MOSUNNY   79  57  46 SW3       30.11S
RED WING       MOSUNNY   82  57  42 W5        30.06R
STANTON        SUNNY     82  56  41 W7        30.07S
DODGE CENTER   MOSUNNY   79  57  47 CALM      30.10F
WINONA         MOSUNNY   81  55  41 NW3       30.07S
AUSTIN         PTSUNNY   81  55  41 W6        30.10S
PRESTON        SUNNY     78  64  60 CALM      30.10F
$$
ABBREVIATIONS USED IN REMARKS
   TC - TEMPERATURES IN CELSIUS
  WCI - WIND CHILL INDEX
   HX - HEAT INDEX
  VSB - VISIBILITY
$$


USA.gov is the U.S. government's official web portal to all federal, state and local government web resources and services.